Location: Battersea Observatory
(44.4318°N, 76.3841°W)
Time: 17:28:33
(UTC-04:00)

A-11 Canister half - Visible Passes

Search period start: 27 May 2022 00:00
Search period end: 06 June 2022 00:00
Orbit: 1527 x 1682 km, 47.3° (Epoch: 26 May)

Date Brightness Start Highest point End Pass type
(mag) Time Alt. Az. Time Alt. Az. Time Alt. Az.
27 May 9.6 02:08:11 30° S 02:11:04 37° SE 02:19:26 10° ENE visible
27 May 9.0 04:06:27 12° WSW 04:15:17 84° SSE 04:24:57 10° ENE visible
28 May 9.6 01:47:14 31° SSE 01:49:28 35° SE 01:57:40 10° ENE visible
28 May 9.0 03:45:30 15° WSW 03:53:36 82° SSE 04:03:14 10° ENE visible
29 May 9.6 01:26:14 31° SSE 01:27:52 33° SE 01:35:55 10° ENE visible
29 May 9.0 03:24:28 18° WSW 03:31:55 80° SSE 03:41:31 10° ENE visible
30 May 9.6 01:05:09 31° SE 01:06:16 31° SE 01:14:09 10° ENE visible
30 May 8.9 03:03:24 21° SW 03:10:16 78° SSE 03:19:49 10° ENE visible
31 May 9.6 00:43:59 29° SE 00:44:40 30° SE 00:52:22 10° ENE visible
31 May 8.9 02:42:14 23° SW 02:48:36 76° SSE 02:58:07 10° ENE visible
31 May 9.3 04:44:26 10° W 04:53:51 76° N 05:03:34 10° E visible
01 Jun 9.7 00:22:45 28° SE 00:23:05 28° SE 00:30:36 10° ENE visible
01 Jun 8.9 02:20:58 25° SW 02:26:57 74° SSE 02:36:24 10° ENE visible
01 Jun 9.2 04:22:45 10° W 04:32:09 76° N 04:41:50 10° E visible
02 Jun 9.7 00:01:22 27° SE 00:01:29 27° SE 00:08:49 10° ENE visible
02 Jun 8.9 01:59:34 27° SW 02:05:17 71° SSE 02:14:42 10° ENE visible
02 Jun 9.2 04:01:04 10° W 04:10:27 76° N 04:20:06 10° E visible
02 Jun 9.8 23:39:49 25° SE 23:39:54 25° SE 23:47:01 10° E visible
03 Jun 8.9 01:38:00 27° SW 01:43:38 69° SSE 01:53:00 10° ENE visible
03 Jun 9.2 03:39:22 10° W 03:48:44 77° N 03:58:23 10° E visible
03 Jun 9.8 23:18:01 24° SE 23:18:19 24° SE 23:25:12 10° E visible
04 Jun 8.9 01:16:11 26° SW 01:21:59 67° SSE 01:31:18 10° ENE visible
04 Jun 9.1 03:17:40 10° W 03:27:02 77° N 03:36:39 10° E visible
04 Jun 9.8 22:55:46 22° SE 22:56:44 22° SE 23:03:22 10° E visible
05 Jun 8.9 00:53:53 22° SW 01:00:21 65° SSE 01:09:36 10° ENE visible
05 Jun 9.1 02:55:59 10° W 03:05:21 78° N 03:14:55 10° ENE visible
05 Jun 9.9 22:32:28 18° SSE 22:35:10 21° SE 22:41:31 10° E visible
